{"data":{"norad_id":58221,"intl_designator":"2023-170R","name":"STARLINK-30836","alt_names":[],"object_type":"PAYLOAD","status":"ACTIVE","operator":null,"country":"US","launch_date":"2023-11-03","launch_site_code":"AFETR","launch_vehicle":null,"mission":null,"orbit_class":"UNKNOWN","rcs_meters":null,"size_class":null,"mass_kg":null,"dimensions":null,"purposes":["comms"],"wikipedia_slug":null,"has_3d_model":false,"image_url":null,"decayed_at":null,"tle_current":{"epoch":"2026-09-20T02:49:31.159200Z","epoch_age_seconds":176677,"freshness":"STALE","line1":"1 58221U 23170R   26263.11772175  .00000850  00000+0  40359-4 0  9998","line2":"2 58221  42.9915 176.2897 0000107  29.7707 330.3151 15.27594460160039","mean_motion":15.2759446,"eccentricity":1.07e-5,"inclination_deg":42.9915,"raan_deg":176.2897,"arg_perigee_deg":29.7707,"mean_anomaly_deg":330.3151,"bstar":4.0359e-5,"rev_number":16003,"period_min":94.265856397515,"perigee_km":482.93238371131,"apogee_km":483.07921216718,"semimajor_km":6861.1427979392,"source":"CELESTRAK","updated_at":"2026-09-21T09:00:33.834148Z"}}}